When you browse on this site, cookies collect data to enhance your experience and personalize the content and advertising you see.
Visit our Privacy Policy to learn more. By continuing to use the site, you agree to this use of cookies and data.

Hourly Weather Shillong

Today, 2 July, Thursday

Time Temperature Precipitation Wind Pressure Humidity
00:00 +20°C° 0 mm 1 mps 628 mmHg 98%
01:00 +20°C° 0.3 mm 1 mps 627 mmHg 98%
02:00 +20°C° 0.3 mm 1 mps 627 mmHg 97%
03:00 +20°C° 0.3 mm 1 mps 626 mmHg 97%
04:00 +20°C° 0.2 mm 1 mps 627 mmHg 97%
05:00 +20°C° 0.2 mm 1 mps 627 mmHg 97%
06:00 +20°C° 0 mm 1 mps 627 mmHg 98%
07:00 +21°C° 2.5 mm 1 mps 627 mmHg 97%
08:00 +21°C° 2.5 mm 1 mps 628 mmHg 96%
09:00 +22°C° 2.5 mm 1 mps 628 mmHg 95%
10:00 +22°C° 2.4 mm 1 mps 627 mmHg 94%
11:00 +21°C° 2.4 mm 1 mps 627 mmHg 94%
12:00 +21°C° 0 mm 1 mps 628 mmHg 94%
13:00 +22°C° 0 mm 1 mps 628 mmHg 87%
14:00 +24°C° 0 mm 1 mps 628 mmHg 81%
15:00 +25°C° 0 mm 2 mps 628 mmHg 75%
16:00 +24°C° 0.2 mm 1 mps 627 mmHg 81%
17:00 +23°C° 0.2 mm 1 mps 627 mmHg 87%
18:00 +22°C° 0 mm 1 mps 627 mmHg 92%
19:00 +21°C° 0.4 mm 1 mps 627 mmHg 93%
20:00 +21°C° 0.4 mm 1 mps 627 mmHg 95%
21:00 +20°C° 0.4 mm 1 mps 627 mmHg 97%
22:00 +20°C° 0.1 mm 1 mps 628 mmHg 97%
23:00 +20°C° 0.1 mm 1 mps 628 mmHg 97%

Tomorrow, 3 July, Friday

Time Temperature Precipitation Wind Pressure Humidity
00:00 +20°C° 0.1 mm 1 mps 628 mmHg 97%
01:00 +20°C° 0.7 mm 1 mps 628 mmHg 97%
02:00 +20°C° 0.7 mm 1 mps 627 mmHg 98%
03:00 +20°C° 0.7 mm 1 mps 627 mmHg 98%
04:00 +20°C° 0.9 mm 1 mps 627 mmHg 98%
05:00 +20°C° 0.9 mm 1 mps 627 mmHg 98%
06:00 +20°C° 0.9 mm 1 mps 627 mmHg 97%
07:00 +20°C° 0.7 mm 1 mps 628 mmHg 97%
08:00 +21°C° 0.7 mm 1 mps 628 mmHg 96%
09:00 +21°C° 0.7 mm 1 mps 628 mmHg 96%
10:00 +22°C° 0.7 mm 1 mps 629 mmHg 93%
11:00 +23°C° 0.7 mm 1 mps 629 mmHg 89%
12:00 +24°C° 0.7 mm 2 mps 629 mmHg 86%
13:00 +24°C° 1.6 mm 1 mps 629 mmHg 87%
14:00 +24°C° 1.6 mm 1 mps 628 mmHg 88%
15:00 +24°C° 1.6 mm 1 mps 627 mmHg 89%
16:00 +23°C° 0.8 mm 1 mps 627 mmHg 91%
17:00 +23°C° 0.8 mm 1 mps 627 mmHg 93%
18:00 +22°C° 0.8 mm 1 mps 627 mmHg 96%
19:00 +22°C° 1 mm 1 mps 628 mmHg 96%
20:00 +21°C° 1 mm 1 mps 628 mmHg 97%
21:00 +21°C° 1 mm 1 mps 628 mmHg 98%
22:00 +21°C° 0.4 mm 1 mps 628 mmHg 97%
23:00 +20°C° 0.4 mm 1 mps 628 mmHg 97%

Day after tomorrow, 4 July, Saturday

Time Temperature Precipitation Wind Pressure Humidity
00:00 +19°C° 0.4 mm 2 mps 628 mmHg 97%
01:00 +19°C° 0.9 mm 2 mps 628 mmHg 97%
02:00 +19°C° 0.9 mm 2 mps 627 mmHg 98%
03:00 +19°C° 0.9 mm 2 mps 627 mmHg 98%
04:00 +19°C° 1 mm 2 mps 627 mmHg 98%
05:00 +20°C° 1 mm 1 mps 627 mmHg 98%
06:00 +20°C° 1 mm 1 mps 627 mmHg 97%
07:00 +20°C° 0.6 mm 1 mps 628 mmHg 97%
08:00 +20°C° 0.6 mm 1 mps 628 mmHg 96%
09:00 +21°C° 0.6 mm 1 mps 628 mmHg 96%
10:00 +21°C° 0.3 mm 1 mps 628 mmHg 94%
11:00 +21°C° 0.3 mm 1 mps 628 mmHg 93%
12:00 +22°C° 0.3 mm 1 mps 628 mmHg 92%
13:00 +22°C° 0.8 mm 1 mps 628 mmHg 93%
14:00 +22°C° 0.8 mm 1 mps 628 mmHg 93%
15:00 +22°C° 0.8 mm 1 mps 628 mmHg 93%
16:00 +22°C° 1.2 mm 1 mps 627 mmHg 95%
17:00 +21°C° 1.2 mm 1 mps 627 mmHg 96%
18:00 +21°C° 1.2 mm 1 mps 627 mmHg 98%
19:00 +21°C° 1.7 mm 1 mps 627 mmHg 98%
20:00 +20°C° 1.7 mm 1 mps 628 mmHg 98%
21:00 +19°C° 1.7 mm 2 mps 628 mmHg 98%
22:00 +20°C° 0.7 mm 1 mps 628 mmHg 98%
23:00 +20°C° 0.7 mm 1 mps 628 mmHg 98%

5 July, Sunday

Time Temperature Precipitation Wind Pressure Humidity
00:00 +20°C° 0.7 mm 1 mps 628 mmHg 98%
01:00 +20°C° 0.9 mm 1 mps 627 mmHg 98%
02:00 +20°C° 0.9 mm 1 mps 627 mmHg 98%
03:00 +20°C° 0.9 mm 1 mps 627 mmHg 98%
04:00 +20°C° 2 mm 1 mps 627 mmHg 98%
05:00 +20°C° 2 mm 1 mps 627 mmHg 98%
06:00 +20°C° 2 mm 1 mps 627 mmHg 99%
07:00 +20°C° 0.6 mm 1 mps 627 mmHg 98%
08:00 +21°C° 0.6 mm 1 mps 628 mmHg 96%
09:00 +21°C° 0.6 mm 1 mps 628 mmHg 95%
10:00 +22°C° 0.7 mm 1 mps 628 mmHg 94%
11:00 +22°C° 0.7 mm 1 mps 628 mmHg 92%
12:00 +23°C° 0.7 mm 1 mps 628 mmHg 90%
13:00 +23°C° 1.3 mm 1 mps 628 mmHg 89%
14:00 +24°C° 1.3 mm 2 mps 627 mmHg 89%
15:00 +24°C° 1.3 mm 2 mps 627 mmHg 88%
16:00 +23°C° 1.3 mm 2 mps 626 mmHg 91%
17:00 +22°C° 1.3 mm 1 mps 626 mmHg 94%
18:00 +22°C° 1.3 mm 1 mps 626 mmHg 97%
19:00 +21°C° 1.6 mm 1 mps 626 mmHg 97%
20:00 +20°C° 1.6 mm 2 mps 627 mmHg 97%
21:00 +19°C° 1.6 mm 2 mps 627 mmHg 97%
22:00 +19°C° 2 mm 2 mps 627 mmHg 98%
23:00 +20°C° 2 mm 1 mps 627 mmHg 98%

6 July, Monday

Time Temperature Precipitation Wind Pressure Humidity
00:00 +20°C° 2 mm 1 mps 627 mmHg 98%
01:00 +20°C° 1.3 mm 1 mps 626 mmHg 98%
02:00 +20°C° 1.3 mm 1 mps 626 mmHg 98%
03:00 +20°C° 1.3 mm 1 mps 626 mmHg 98%
04:00 +20°C° 0.4 mm 1 mps 626 mmHg 98%
05:00 +20°C° 0.4 mm 1 mps 626 mmHg 98%
06:00 +20°C° 0.4 mm 1 mps 626 mmHg 98%
07:00 +20°C° 0.1 mm 1 mps 627 mmHg 96%
08:00 +21°C° 0.1 mm 1 mps 627 mmHg 94%
09:00 +22°C° 0.1 mm 1 mps 628 mmHg 93%
10:00 +23°C° 0.5 mm 1 mps 628 mmHg 88%
11:00 +24°C° 0.5 mm 1 mps 628 mmHg 84%
12:00 +25°C° 0.5 mm 1 mps 628 mmHg 80%
13:00 +25°C° 1.8 mm 1 mps 628 mmHg 82%
14:00 +25°C° 1.8 mm 1 mps 627 mmHg 83%
15:00 +25°C° 1.8 mm 1 mps 626 mmHg 85%
16:00 +24°C° 1 mm 1 mps 626 mmHg 88%
17:00 +24°C° 1 mm 1 mps 626 mmHg 90%
18:00 +23°C° 1 mm 1 mps 626 mmHg 93%
19:00 +22°C° 0.6 mm 1 mps 626 mmHg 94%
20:00 +21°C° 0.6 mm 1 mps 626 mmHg 94%
21:00 +20°C° 0.6 mm 1 mps 627 mmHg 95%
22:00 +20°C° 1.2 mm 1 mps 627 mmHg 96%
23:00 +20°C° 1.2 mm 1 mps 627 mmHg 96%

7 July, Tuesday

Time Temperature Precipitation Wind Pressure Humidity
00:00 +20°C° 1.2 mm 1 mps 627 mmHg 97%
01:00 +20°C° 1.5 mm 1 mps 627 mmHg 97%
02:00 +20°C° 1.5 mm 1 mps 627 mmHg 97%
03:00 +20°C° 1.5 mm 1 mps 627 mmHg 97%
04:00 +20°C° 0.8 mm 1 mps 627 mmHg 97%
05:00 +20°C° 0.8 mm 1 mps 627 mmHg 97%
06:00 +20°C° 0.8 mm 1 mps 627 mmHg 97%
07:00 +21°C° 0.6 mm 1 mps 628 mmHg 96%
08:00 +22°C° 0.6 mm 1 mps 629 mmHg 95%
09:00 +22°C° 0.6 mm 1 mps 629 mmHg 93%
10:00 +23°C° 0.6 mm 1 mps 629 mmHg 92%
11:00 +23°C° 0.6 mm 1 mps 629 mmHg 90%
12:00 +24°C° 0.6 mm 1 mps 629 mmHg 88%
13:00 +24°C° 0.3 mm 1 mps 629 mmHg 86%
14:00 +24°C° 0.3 mm 1 mps 628 mmHg 84%
15:00 +25°C° 0.3 mm 1 mps 628 mmHg 82%
16:00 +24°C° 0.2 mm 1 mps 628 mmHg 84%
17:00 +24°C° 0.2 mm 1 mps 628 mmHg 86%
18:00 +23°C° 0.2 mm 1 mps 628 mmHg 88%
19:00 +22°C° 0.3 mm 1 mps 628 mmHg 89%
20:00 +21°C° 0.3 mm 1 mps 628 mmHg 91%
21:00 +20°C° 0.3 mm 1 mps 628 mmHg 92%
22:00 +20°C° 0.8 mm 1 mps 628 mmHg 93%
23:00 +20°C° 0.8 mm 1 mps 628 mmHg 94%
Show more